Notices

What's New in latest Release from April 7th, 2021:

- Updated Glossary, including Speed of Maximum Gust, and Total Hourly Precipitation

- Updated national and regional climate services offices contacts and prices information

- Addition of station inventory lists for 1981-2010, 1971-2000, and 1961-1990 Normals.

If you haven't already, please take our survey and provide feedback about our website: https://eccc.sondage-survey.ca/f/LanguageSelection.aspx?s=442ca660-fcf1-47c0-95a9-59707d6fd709

Hourly Data Report for January 04, 2017

TORONTO CITY
ONTARIO

43°40'00.000" N
79°24'00.000" W
112.50 m
6158355
71508
XTO

Download Data

Hourly Data (January 2017)
Hourly Data Report for January 4, 2017
TIME
LST
Temp Definition
°C
Dew Point Definition
°C
Rel Hum Definition
%
Precip. Amount Definition
mm

Wind Dir Definition
10's deg

Wind Spd Definition
km/h
Visibility Definition
km
Stn Press Definition
kPa
Hmdx Definition


Wind Chill Definition


Weather Definition


00:00 3.2 2.1 92 0.0 LegendMM LegendMM   98.37     LegendNANA
01:00 2.5 1.5 93 0.0 LegendMM LegendMM   98.27     LegendNANA
02:00 2.4 1.4 93 0.0 LegendMM LegendMM   98.30     LegendNANA
03:00 2.9 2.0 94 0.4 LegendMM LegendMM   98.29     LegendNANA
04:00 3.4 2.3 92 0.0 LegendMM LegendMM   98.24     LegendNANA
05:00 3.3 0.8 84 0.2 LegendMM LegendMM   98.23     LegendNANA
06:00 3.2 0.3 81 0.0 LegendMM LegendMM   98.32     LegendNANA
07:00 3.5 0.2 79 0.0 LegendMM LegendMM   98.36     LegendNANA
08:00 3.4 0.0 79 0.0 LegendMM LegendMM   98.38     LegendNANA
09:00 2.4 -0.3 83 0.0 LegendMM LegendMM   98.41     LegendNANA
10:00 2.2 -3.3 67 0.0 LegendMM LegendMM   98.45     LegendNANA
11:00 0.6 -5.7 63 0.0 LegendMM LegendMM   98.54     LegendNANA
12:00 -1.1 -6.9 65 0.0 LegendMM LegendMM   98.58     LegendNANA
13:00 -2.6 -9.0 61 0.0 LegendMM LegendMM   98.65     LegendNANA
14:00 -3.6 -11.7 54 0.0 LegendMM LegendMM   98.75     LegendNANA
15:00 -4.0 -12.1 53 0.0 LegendMM LegendMM   98.82     LegendNANA
16:00 -4.6 -11.7 58 0.0 LegendMM LegendMM   98.90     LegendNANA
17:00 -5.2 -12.2 58 0.0 LegendMM LegendMM   98.98     LegendNANA
18:00 -5.6 -12.3 59 0.0 LegendMM LegendMM   99.01     LegendNANA
19:00 -6.1 -11.8 64 0.0 LegendMM LegendMM   99.06     LegendNANA
20:00 -6.9 -13.2 61 0.0 LegendMM LegendMM   99.11     LegendNANA
21:00 -7.2 -12.8 65 0.0 LegendMM LegendMM   99.13     LegendNANA
22:00 -7.2 -13.0 63 0.0 LegendMM LegendMM   99.16     LegendNANA
23:00 -7.4 -13.4 63 0.0 LegendMM LegendMM   99.19     LegendNANA

Notes on Data Quality.

Legend

  • E = Estimated
  • M = Missing
  • NA = Not Available*
  • [empty] = Indicates an unobserved value
Date modified: